Volver al catálogo

STARLINK-36729

ActivoComunicacionesVLEO
NORAD 67905·PAYLOAD·🇺🇸 United States

Lanzado Feb 22, 2026 desde Vandenberg Space Force Base

Loading…

Próximos Pases (próximas 24 horas)

TLE

ActualizadoSource: CelesTrak SupGP

Época: Sep 15, 2026, 03:51 UTC

1 67905C 26036B   26258.16090278 -.00035840  00000+0 -12983-2 0  2584
2 67905  42.9990 255.6145 0001068 268.7253 138.5473 15.27591670    13

Sigue STARLINK-36729 en tiempo real con AllMySat

Download on the App Store